sat.trackr.live / text

‹ back to catalog

KOMPSAT-3A

NORAD 40536 · 2015-014A

PAYLOAD ACTIVE UNKNOWN

§ Identity

Operator
Country
SKOR
Launch date
2015-03-25
Launch site
DLS
Launch vehicle
Mass (kg)
RCS (m²)
5.36

Purposes: earth_obs

External: N2YO · Heavens-Above · Gunter

§ Orbital elements

Epoch: 2026-09-20T04:45:45.648864Z

Period
92.38 min
Inclination
97.6940°
Eccentricity
0.0049517
Mean motion
15.58755623 rev/d
Perigee alt
357.7 km
Apogee alt
424.8 km
Semi-major
6,769.4 km
B*
2.2794e-4
RAAN
261.9037°
Arg perigee
185.2870°
Mean anomaly
174.7869°
Rev number
63,659

§ Raw data

KOMPSAT-3A1 40536U 15014A   26263.19844501  .00018508  00000+0  22794-3 0  99982 40536  97.6940 261.9037 0049517 185.2870 174.7869 15.58755623636598

JSON: /api/v1/satellites/40536 · /tle

For live sub-satellite position, see the globe view (requires WebGL).

§ Visibility from observer

Set your observer location to see the next 7 days of passes ≥ 10°. The values pass through the URL so the page stays shareable.

No JS? Fill the form by hand. The geolocation button needs JavaScript.